Location: *
(51.5000°N, 0.1100°W)
Time: 21:07:56
(UTC+00:00)

USA 267 - Pass Details

Date: 25 May 2024
Orbit: 1100 x 1107 km, 123.0° (Epoch: 21 May)

Event Time Altitude Azimuth Distance (km) Brightness Sun altitude
Rises 02:16:52 0° 66° (ENE) 3,922 7.2 -11.3°
Reaches altitude 10° 02:19:22 10° 64° (ENE) 2,963 6.5 -11.1°
Maximum altitude 02:25:49 65° 344° (NNW) 1,203 3.7 -10.5°
Drops below altitude 10° 02:32:16 10° 265° (W) 2,958 5.1 -9.9°
Sets 02:34:45 0° 263° (W) 3,915 5.7 -9.7°
